Terminal Aerodrome Forecast
Issued by NWS

Home | Current Version | Previous Version | Text Only | Print | Product List | Glossary On
Versions: 1 2 3 4 5 6 7 8 9 10 11 12 13 14 15 16 17 18
000
FTUS45 KRIW 261700
TAFJAC
TAF
KJAC 261720Z 2618/2718 36010KT P6SM -SN SCT040 BKN070
     FM262000 VRB04KT P6SM SCT080
     FM270100 36006KT P6SM BKN040
     FM271000 VRB05KT P6SM VCFG SCT004 BKN035
      AMD LTD TO CLD VIS AND WIND=

USA.gov is the U.S. government's official web portal to all federal, state and local government web resources and services.